Zurück zum Katalog

COSMOS 1275 DEB

AktivPO
NORAD 12736·DEBRIS·🇷🇺 Russia

Gestartet Jun 4, 1981 von Plesetsk Cosmodrome

Loading…

Nächste Überflüge (nächste 24 Stunden)

TLE

AktuellSource: Space-Track

Epoche: Sep 14, 2026, 08:51 UTC

1 12736U 81053CD  26257.36881568  .00000176  00000-0  21194-3 0  9997
2 12736  83.0296  38.7639 0130084  23.6278   5.1065 13.57758288227528

Verfolge COSMOS 1275 DEB in Echtzeit mit AllMySat

Download on the App Store